Location: Newark
(25.4297°S, 49.2719°W)
Time: 02:08:34
(UTC+00:00)

Vanguard 1 Rocket - Pass Details

Date: 24 November 2019
Orbit: 650 x 4226 km, 34.3° (Epoch: 14 December)

Event Time Altitude Azimuth Distance (km) Brightness Sun altitude
Rises 12:42:58 0° 343° (NNW) 4,759 11.0 57.3°
Reaches altitude 10° 12:46:08 10° 354° (N) 4,187 10.9 58.1°
Maximum altitude 12:56:27 31° 51° (NE) 3,952 11.6 60.4°
Drops below altitude 10° 13:13:11 10° 104° (ESE) 6,873 12.4 64.1°
Sets 13:20:21 0° 112° (ESE) 8,264 12.6 65.8°
